Location: Wildcat Hills Observatory
(41.6350°N, 103.6812°W)
Time: 15:14:15
(UTC-07:00)

RESURS DK-1 - Pass Details

Date: 23 June 2018
Orbit: 554 x 565 km, 69.9° (Epoch: 19 November)

Event Time Altitude Azimuth Distance (km) Brightness Sun altitude
Exits shadow 22:42:17 29° 101° (E) 1,048 3.4 -17.9°
Drops below altitude 10° 22:45:38 10° 47° (NE) 1,850 5.1 -18.2°
Sets 22:48:02 0° 36° (NE) 2,748 6.2 -18.4°
